Вернуться в каталог

STARLINK-35703

АктивенСвязьVLEO
NORAD 66970·PAYLOAD·🇺🇸 United States

Запущен Dec 8, 2025 с Cape Canaveral Space Force Station

Loading…

Ближайшие Пролёты (ближайшие 24 часа)

TLE

СвежийSource: CelesTrak SupGP

Эпоха: Sep 15, 2026, 03:25 UTC

1 66970C 25288M   26258.14284722 -.00003156  00000+0 -11430-3 0  2582
2 66970  43.0013  33.2567 0001661 266.4585 136.8392 15.27586617    18

Отслеживайте STARLINK-35703 в реальном времени с AllMySat

Download on the App Store